• In Deutschland
  • Länderverzeichnis
  • Für 7 Tage
  • Wassertemperatur
  • Satellitenkarten
  • Wetterkarte
  • Widgets
  • user-avatar
    Anmelden

    Stündliche Wetter Steinfurt

    Heute, 12 Dezember, Dienstag

    Zeit Temperatur Niederschläge Wind Luftdruck Luftfeuchtigkeit
    00:00 -1°C° 0 mm 4 m/S 733 mmHg 96%
    01:00 -1°C° 0,4 mm 5 m/S 734 mmHg 95%
    02:00 -1°C° 0,4 mm 5 m/S 735 mmHg 94%
    03:00 -2°C° 0,4 mm 6 m/S 736 mmHg 93%
    04:00 -2°C° 0,2 mm 6 m/S 738 mmHg 91%
    05:00 -2°C° 0,2 mm 6 m/S 739 mmHg 89%
    06:00 -2°C° 0 mm 5 m/S 742 mmHg 89%
    07:00 -2°C° 0,1 mm 5 m/S 743 mmHg 89%
    08:00 -2°C° 0,1 mm 6 m/S 744 mmHg 88%
    09:00 -2°C° 0,1 mm 6 m/S 745 mmHg 88%
    10:00 -2°C° 0,2 mm 6 m/S 746 mmHg 89%
    11:00 -2°C° 0,2 mm 6 m/S 747 mmHg 91%
    12:00 -1°C° 0,2 mm 6 m/S 748 mmHg 92%
    13:00 -1°C° 0,2 mm 5 m/S 749 mmHg 92%
    14:00 -1°C° 0,2 mm 5 m/S 749 mmHg 92%
    15:00 -1°C° 0,2 mm 4 m/S 750 mmHg 91%
    16:00 -1°C° 0 mm 4 m/S 751 mmHg 91%
    17:00 -2°C° 0 mm 4 m/S 751 mmHg 91%
    18:00 -1°C° 0 mm 3 m/S 752 mmHg 91%
    19:00 -2°C° 0 mm 4 m/S 753 mmHg 92%
    20:00 -2°C° 0 mm 4 m/S 753 mmHg 92%
    21:00 -2°C° 0 mm 4 m/S 753 mmHg 92%
    22:00 -2°C° 0 mm 5 m/S 753 mmHg 92%
    23:00 -2°C° 0 mm 5 m/S 753 mmHg 92%

    Morgen, 13 Dezember, Mittwoch

    Zeit Temperatur Niederschläge Wind Luftdruck Luftfeuchtigkeit
    00:00 -2°C° 0 mm 5 m/S 753 mmHg 92%
    01:00 -2°C° 0 mm 5 m/S 753 mmHg 91%
    02:00 -2°C° 0 mm 5 m/S 753 mmHg 90%
    03:00 -3°C° 0 mm 6 m/S 752 mmHg 89%
    04:00 -3°C° 0 mm 6 m/S 752 mmHg 88%
    05:00 -2°C° 0 mm 7 m/S 751 mmHg 87%
    06:00 -2°C° 0 mm 7 m/S 750 mmHg 86%
    07:00 -2°C° 0,2 mm 7 m/S 750 mmHg 86%
    08:00 -1°C° 0,2 mm 8 m/S 749 mmHg 86%
    09:00 -1°C° 0,2 mm 8 m/S 748 mmHg 85%
    10:00 0°C° 1 mm 8 m/S 747 mmHg 87%
    11:00 0°C° 1 mm 8 m/S 746 mmHg 90%
    12:00 0°C° 1 mm 8 m/S 745 mmHg 92%
    13:00 0°C° 0,6 mm 8 m/S 744 mmHg 93%
    14:00 +2°C° 0,6 mm 7 m/S 743 mmHg 94%
    15:00 +2°C° 0,6 mm 7 m/S 743 mmHg 95%
    16:00 +2°C° 0,2 mm 7 m/S 742 mmHg 95%
    17:00 +2°C° 0,2 mm 7 m/S 741 mmHg 94%
    18:00 +2°C° 0,2 mm 6 m/S 740 mmHg 94%
    19:00 +2°C° 0,9 mm 8 m/S 739 mmHg 93%
    20:00 +2°C° 0,9 mm 9 m/S 738 mmHg 91%
    21:00 +3°C° 0,9 mm 10 m/S 736 mmHg 90%
    22:00 +2°C° 0,3 mm 9 m/S 737 mmHg 86%
    23:00 +1°C° 0,3 mm 8 m/S 737 mmHg 81%

    übermorgen, 14 Dezember, Donnerstag

    Zeit Temperatur Niederschläge Wind Luftdruck Luftfeuchtigkeit
    00:00 +1°C° 0,3 mm 6 m/S 737 mmHg 77%
    01:00 0°C° 0,7 mm 7 m/S 737 mmHg 78%
    02:00 0°C° 0,7 mm 7 m/S 737 mmHg 79%
    03:00 0°C° 0,7 mm 8 m/S 737 mmHg 79%
    04:00 0°C° 0,9 mm 8 m/S 737 mmHg 78%
    05:00 0°C° 0,9 mm 8 m/S 738 mmHg 77%
    06:00 0°C° 0,9 mm 8 m/S 739 mmHg 76%
    07:00 0°C° 0,1 mm 8 m/S 739 mmHg 76%
    08:00 0°C° 0,1 mm 8 m/S 740 mmHg 77%
    09:00 0°C° 0,1 mm 8 m/S 740 mmHg 77%
    10:00 0°C° 0 mm 8 m/S 740 mmHg 77%
    11:00 0°C° 0 mm 8 m/S 739 mmHg 76%
    12:00 +1°C° 0 mm 8 m/S 739 mmHg 76%
    13:00 +2°C° 0 mm 6 m/S 738 mmHg 79%
    14:00 +1°C° 0 mm 5 m/S 738 mmHg 81%
    15:00 +1°C° 0 mm 4 m/S 737 mmHg 84%
    16:00 +2°C° 0,2 mm 3 m/S 736 mmHg 86%
    17:00 +1°C° 0,2 mm 3 m/S 736 mmHg 87%
    18:00 +2°C° 0,2 mm 2 m/S 735 mmHg 89%
    19:00 +1°C° 0,9 mm 3 m/S 735 mmHg 89%
    20:00 0°C° 0,9 mm 4 m/S 735 mmHg 89%
    21:00 0°C° 0,9 mm 4 m/S 736 mmHg 88%
    22:00 0°C° 0,1 mm 4 m/S 736 mmHg 88%
    23:00 0°C° 0,1 mm 4 m/S 737 mmHg 88%

    15 Dezember, Freitag

    Zeit Temperatur Niederschläge Wind Luftdruck Luftfeuchtigkeit
    00:00 0°C° 0,1 mm 5 m/S 737 mmHg 88%
    01:00 -1°C° 0 mm 5 m/S 738 mmHg 88%
    02:00 -1°C° 0 mm 5 m/S 738 mmHg 88%
    03:00 -1°C° 0 mm 5 m/S 739 mmHg 88%
    04:00 -1°C° 0 mm 5 m/S 739 mmHg 88%
    05:00 -2°C° 0 mm 4 m/S 739 mmHg 89%
    06:00 -2°C° 0 mm 4 m/S 740 mmHg 90%
    07:00 -2°C° 0 mm 4 m/S 740 mmHg 90%
    08:00 -2°C° 0 mm 4 m/S 740 mmHg 90%
    09:00 -1°C° 0 mm 3 m/S 741 mmHg 91%
    10:00 0°C° 0 mm 3 m/S 741 mmHg 90%
    11:00 +1°C° 0 mm 3 m/S 741 mmHg 90%
    12:00 +2°C° 0 mm 2 m/S 741 mmHg 90%
    13:00 +2°C° 0 mm 2 m/S 742 mmHg 91%
    14:00 +2°C° 0 mm 2 m/S 742 mmHg 92%
    15:00 +1°C° 0 mm 2 m/S 742 mmHg 93%
    16:00 +1°C° 0 mm 2 m/S 743 mmHg 93%
    17:00 +1°C° 0 mm 2 m/S 743 mmHg 93%
    18:00 -1°C° 0 mm 2 m/S 744 mmHg 93%
    19:00 -1°C° 0 mm 3 m/S 745 mmHg 93%
    20:00 -1°C° 0 mm 3 m/S 745 mmHg 93%
    21:00 -1°C° 0 mm 3 m/S 746 mmHg 93%
    22:00 -1°C° 0 mm 3 m/S 746 mmHg 93%
    23:00 -1°C° 0 mm 3 m/S 747 mmHg 93%

    16 Dezember, Samstag

    Zeit Temperatur Niederschläge Wind Luftdruck Luftfeuchtigkeit
    00:00 0°C° 0 mm 3 m/S 747 mmHg 93%
    01:00 0°C° 0 mm 3 m/S 747 mmHg 93%
    02:00 0°C° 0 mm 3 m/S 748 mmHg 93%
    03:00 0°C° 0 mm 3 m/S 748 mmHg 93%
    04:00 0°C° 0 mm 3 m/S 748 mmHg 93%
    05:00 0°C° 0 mm 3 m/S 749 mmHg 92%
    06:00 0°C° 0 mm 3 m/S 749 mmHg 92%
    07:00 +1°C° 0,1 mm 3 m/S 749 mmHg 92%
    08:00 0°C° 0,1 mm 4 m/S 750 mmHg 91%
    09:00 0°C° 0,1 mm 4 m/S 750 mmHg 91%
    10:00 +1°C° 0 mm 4 m/S 751 mmHg 88%
    11:00 +1°C° 0 mm 4 m/S 751 mmHg 85%
    12:00 +2°C° 0 mm 5 m/S 751 mmHg 81%
    13:00 +1°C° 0,2 mm 4 m/S 751 mmHg 82%
    14:00 +1°C° 0,2 mm 4 m/S 752 mmHg 84%
    15:00 +1°C° 0,2 mm 4 m/S 752 mmHg 85%
    16:00 0°C° 0,1 mm 4 m/S 753 mmHg 86%
    17:00 0°C° 0,1 mm 4 m/S 753 mmHg 87%
    18:00 0°C° 0,1 mm 4 m/S 754 mmHg 88%
    19:00 0°C° 0,1 mm 3 m/S 754 mmHg 89%
    20:00 0°C° 0,1 mm 3 m/S 755 mmHg 90%
    21:00 0°C° 0,1 mm 3 m/S 755 mmHg 90%
    22:00 0°C° 0,1 mm 3 m/S 756 mmHg 91%
    23:00 0°C° 0,1 mm 3 m/S 756 mmHg 91%

    17 Dezember, Sonntag

    Zeit Temperatur Niederschläge Wind Luftdruck Luftfeuchtigkeit
    00:00 0°C° 0,1 mm 3 m/S 756 mmHg 91%
    01:00 0°C° 0,1 mm 3 m/S 757 mmHg 92%
    02:00 0°C° 0,1 mm 3 m/S 757 mmHg 92%
    03:00 0°C° 0,1 mm 3 m/S 758 mmHg 92%
    04:00 0°C° 0,1 mm 3 m/S 758 mmHg 92%
    05:00 -1°C° 0,1 mm 3 m/S 758 mmHg 92%
    06:00 -1°C° 0,1 mm 2 m/S 759 mmHg 92%
    07:00 -1°C° 0 mm 2 m/S 759 mmHg 91%
    08:00 -1°C° 0 mm 2 m/S 760 mmHg 90%
    09:00 +1°C° 0 mm 2 m/S 761 mmHg 90%
    10:00 0°C° 0 mm 3 m/S 761 mmHg 89%
    11:00 +1°C° 0 mm 3 m/S 761 mmHg 87%
    12:00 +2°C° 0 mm 3 m/S 761 mmHg 86%
    13:00 +1°C° 0,1 mm 3 m/S 761 mmHg 88%
    14:00 +1°C° 0,1 mm 3 m/S 762 mmHg 90%
    15:00 +1°C° 0,1 mm 3 m/S 762 mmHg 91%
    16:00 +1°C° 0,1 mm 3 m/S 762 mmHg 92%
    17:00 0°C° 0,1 mm 3 m/S 763 mmHg 92%
    18:00 0°C° 0,1 mm 3 m/S 763 mmHg 93%
    19:00 0°C° 0 mm 3 m/S 763 mmHg 93%
    20:00 -1°C° 0 mm 3 m/S 764 mmHg 93%
    21:00 -1°C° 0 mm 3 m/S 764 mmHg 94%
    22:00 -1°C° 0 mm 3 m/S 764 mmHg 93%
    23:00 -1°C° 0 mm 3 m/S 764 mmHg 93%
    Mehr zeigen